This demonstration page uses our WeatherBlox Daily Observations layout. Learn more.

Hourly Observations for February 22, 2017

Temp ( °F °C ) Dew Point ( °F °C ) Humidity (%) Winds ( mph kmh ) Pressure ( in mb ) Visibility ( mi km ) Precip ( " mm )
12:15 am 00:15 Clear 48 9 41 5 76 76 undefined N/A 30.12 1020 10 16.09344 0 0
12:35 am 00:35 Clear 46 8 39 4 76 76 undefined N/A 30.12 1020 10 16.09344 0 0
12:55 am 00:55 Clear 46 8 39 4 76 76 undefined N/A 30.12 1020 10 16.09344 0 0
1:15 am 01:15 Clear 46 8 41 5 82 82 undefined N/A 30.12 1020 10 16.09344 0 0
1:35 am 01:35 Clear 46 8 41 5 82 82 undefined N/A 30.09 1019 10 16.09344 0 0
1:55 am 01:55 Clear 46 8 41 5 82 82 undefined N/A 30.09 1019 10 16.09344 0 0
2:15 am 02:15 Clear 46 8 41 5 82 82 undefined N/A 30.09 1019 10 16.09344 0 0
2:35 am 02:35 Clear 46 8 41 5 82 82 undefined N/A 30.06 1018 10 16.09344 0 0
2:55 am 02:55 Partly Cloudy 45 7 41 5 87 87 undefined N/A 30.06 1018 10 16.09344 0 0
3:15 am 03:15 Mostly Cloudy 46 8 41 5 82 82 undefined N/A 30.06 1018 10 16.09344 0 0
3:35 am 03:35 Mostly Cloudy 46 8 41 5 82 82 undefined N/A 30.06 1018 10 16.09344 0 0
3:55 am 03:55 Cloudy 46 8 41 5 82 82 undefined N/A 30.06 1018 10 16.09344 0 0
4:15 am 04:15 Partly Cloudy 46 8 41 5 82 82 undefined N/A 30.06 1018 10 16.09344 0 0
4:35 am 04:35 Clear 46 8 41 5 82 82 undefined N/A 30.06 1018 10 16.09344 0 0
4:55 am 04:55 Clear 46 8 41 5 82 82 undefined N/A 30.06 1018 10 16.09344 0 0
5:15 am 05:15 Partly Cloudy 46 8 41 5 82 82 undefined N/A 30.06 1018 10 16.09344 0 0
5:35 am 05:35 Clear 46 8 41 5 82 82 undefined N/A 30.06 1018 10 16.09344 0 0
5:55 am 05:55 Clear 46 8 41 5 82 82 undefined N/A 30.06 1018 10 16.09344 0 0
6:15 am 06:15 Clear 46 8 41 5 82 82 undefined N/A 30.06 1018 10 16.09344 0 0
6:35 am 06:35 Clear 46 8 41 5 82 82 undefined N/A 30.06 1018 10 16.09344 0 0
6:55 am 06:55 Partly Cloudy 45 7 41 5 87 87 undefined N/A 30.06 1018 10 16.09344 0 0
7:15 am 07:15 Mostly Cloudy 46 8 41 5 82 82 undefined N/A 30.06 1018 10 16.09344 0 0
7:35 am 07:35 Partly Cloudy 45 7 41 5 87 87 undefined N/A 30.06 1018 10 16.09344 0 0
7:55 am 07:55 Mostly Cloudy 46 8 43 6 87 87 undefined N/A 30.06 1018 10 16.09344 0 0
8:15 am 08:15 Cloudy 46 8 43 6 87 87 undefined N/A 30.06 1018 10 16.09344 0 0
8:35 am 08:35 Mostly Cloudy 48 9 43 6 82 82 undefined N/A 30.06 1018 10 16.09344 0 0
8:55 am 08:55 Mostly Cloudy 50 10 43 6 76 76 undefined N/A 30.03 1017 10 16.09344 0 0
9:15 am 09:15 Cloudy 50 10 43 6 76 76 undefined N/A 30.03 1017 10 16.09344 0 0
9:35 am 09:35 Cloudy 52 11 45 7 77 77 undefined N/A 30.03 1017 10 16.09344 0 0
9:55 am 09:55 Mostly Cloudy 52 11 43 6 72 72 undefined N/A 30.03 1017 10 16.09344 0 0
10:15 am 10:15 Partly Cloudy 52 11 45 7 77 77 undefined N/A 30 1016 10 16.09344 0 0
10:35 am 10:35 Sunny 54 12 45 7 72 72 undefined N/A 30 1016 10 16.09344 0 0
10:55 am 10:55 Sunny 54 12 45 7 72 72 Calm 30 1016 10 16.09344 0 0
11:15 am 11:15 Sunny 55 13 45 7 67 67 SE 5 7 30 1016 10 16.09344 0 0
11:35 am 11:35 Sunny 57 14 45 7 63 63 Calm 30 1016 10 16.09344 0 0
11:55 am 11:55 Sunny 57 14 45 7 63 63 NNE 7 11 29.97 1015 10 16.09344 0 0
12:15 pm 12:15 Sunny 59 15 46 8 63 63 Calm 29.97 1015 10 16.09344 0 0
12:35 pm 12:35 Sunny 61 16 45 7 55 55 Calm 29.97 1015 10 16.09344 0 0
12:55 pm 12:55 Sunny 61 16 46 8 59 59 E 3 6 29.94 1014 10 16.09344 0 0
1:15 pm 13:15 Sunny 63 17 46 8 56 56 ESE 7 11 29.94 1014 10 16.09344 0 0
1:35 pm 13:35 Sunny 63 17 46 8 56 56 Calm 29.94 1014 10 16.09344 0 0
1:55 pm 13:55 Sunny 64 18 46 8 52 52 S 3 6 29.94 1014 10 16.09344 0 0
2:15 pm 14:15 Sunny 64 18 46 8 52 52 undefined N/A 29.91 1013 10 16.09344 0 0
2:35 pm 14:35 Sunny 64 18 46 8 52 52 undefined N/A 29.91 1013 10 16.09344 0 0
2:55 pm 14:55 Sunny 64 18 48 9 56 56 undefined N/A 29.91 1013 10 16.09344 0 0
3:15 pm 15:15 Sunny 64 18 48 9 56 56 undefined N/A 29.91 1013 10 16.09344 0 0
3:35 pm 15:35 Sunny 64 18 48 9 56 56 undefined N/A 29.91 1013 10 16.09344 0 0
3:55 pm 15:55 Sunny 64 18 50 10 60 60 undefined N/A 29.91 1013 10 16.09344 0 0
4:15 pm 16:15 Sunny 64 18 50 10 60 60 undefined N/A 29.91 1013 10 16.09344 0 0
4:35 pm 16:35 Sunny 64 18 50 10 60 60 undefined N/A 29.91 1013 10 16.09344 0 0
4:55 pm 16:55 Sunny 64 18 52 11 64 64 undefined N/A 29.91 1013 10 16.09344 0 0
5:15 pm 17:15 Sunny 64 18 52 11 64 64 undefined N/A 29.91 1013 10 16.09344 0 0
5:35 pm 17:35 Sunny 63 17 52 11 68 68 undefined N/A 29.91 1013 10 16.09344 0 0
5:55 pm 17:55 Sunny 63 17 52 11 68 68 undefined N/A 29.91 1013 10 16.09344 0 0
6:15 pm 18:15 Clear 61 16 52 11 72 72 undefined N/A 29.91 1013 10 16.09344 0 0
6:35 pm 18:35 Clear 61 16 52 11 72 72 undefined N/A 29.91 1013 10 16.09344 0 0
6:55 pm 18:55 Clear 61 16 52 11 72 72 undefined N/A 29.91 1013 10 16.09344 0 0
7:15 pm 19:15 Clear 61 16 52 11 72 72 undefined N/A 29.91 1013 10 16.09344 0 0
7:35 pm 19:35 Clear 59 15 52 11 77 77 undefined N/A 29.91 1013 10 16.09344 0 0
7:55 pm 19:55 Clear 59 15 52 11 77 77 undefined N/A 29.91 1013 10 16.09344 0 0
8:15 pm 20:15 Clear 59 15 52 11 77 77 undefined N/A 29.91 1013 10 16.09344 0 0
8:35 pm 20:35 Clear 55 13 50 10 82 82 undefined N/A 29.91 1013 10 16.09344 0 0
8:55 pm 20:55 Clear 55 13 52 11 88 88 undefined N/A 29.91 1013 10 16.09344 0 0
9:15 pm 21:15 Clear 55 13 52 11 88 88 undefined N/A 29.91 1013 10 16.09344 0 0
9:35 pm 21:35 Clear 55 13 52 11 88 88 undefined N/A 29.91 1013 10 16.09344 0 0
9:55 pm 21:55 Clear 54 12 50 10 88 88 undefined N/A 29.91 1013 10 16.09344 0 0
10:15 pm 22:15 Partly Cloudy 54 12 52 11 94 94 undefined N/A 29.91 1013 10 16.09344 0 0
10:35 pm 22:35 Mostly Cloudy 54 12 52 11 94 94 undefined N/A 29.91 1013 10 16.09344 0 0
10:55 pm 22:55 Cloudy 55 13 54 12 94 94 undefined N/A 29.91 1013 10 16.09344 0 0
11:15 pm 23:15 Cloudy 55 13 54 12 94 94 undefined N/A 29.91 1013 10 16.09344 0 0
11:35 pm 23:35 Cloudy 54 12 52 11 94 94 undefined N/A 29.91 1013 10 16.09344 0 0
11:55 pm 23:55 Cloudy 55 13 54 12 94 94 undefined N/A 29.91 1013 10 16.09344 0 0

Powered by AerisWeather